Time,TemperatureF,DewpointF,PressureIn,WindDirection,WindDirectionDegrees,WindSpeedMPH,WindSpeedGustMPH,Humidity,HourlyPrecipIn,Conditions,Clouds,dailyrainin,SoftwareType,DateUTC
2013-05-31 00:01:00,75.6,67.1,29.82,SE,135,0.4,3.5,75,0.00,CLR,SKC,0.00,WeatherDisplay:10.37,2013-05-31 04:01:00,
2013-05-31 00:06:00,75.6,67.1,29.82,South,180,3.6,6.9,75,0.00,CLR,SKC,0.00,WeatherDisplay:10.37,2013-05-31 04:06:00,
2013-05-31 00:11:00,75.6,67.1,29.82,SW,225,0.3,5.8,75,0.00,CLR,SKC,0.00,WeatherDisplay:10.37,2013-05-31 04:11:00,
2013-05-31 00:16:00,75.6,67.1,29.82,SE,135,2.0,5.8,75,0.00,CLR,SKC,0.00,WeatherDisplay:10.37,2013-05-31 04:16:00,
2013-05-31 00:21:00,75.6,67.1,29.83,SSW,202,4.0,6.9,75,0.00,CLR,SKC,0.00,WeatherDisplay:10.37,2013-05-31 04:21:00,
2013-05-31 00:26:00,75.6,67.1,29.83,SW,225,3.2,4.6,75,0.00,CLR,SKC,0.00,WeatherDisplay:10.37,2013-05-31 04:26:00,
2013-05-31 00:31:00,75.6,67.1,29.83,SSW,202,1.4,5.8,75,0.00,CLR,SKC,0.00,WeatherDisplay:10.37,2013-05-31 04:31:00,
2013-05-31 00:36:00,75.6,67.1,29.82,SSE,158,1.5,2.5,75,0.00,CLR,SKC,0.00,WeatherDisplay:10.37,2013-05-31 04:36:00,
2013-05-31 00:41:00,75.6,67.1,29.83,South,180,4.5,6.9,75,0.00,CLR,SKC,0.00,WeatherDisplay:10.37,2013-05-31 04:41:00,
2013-05-31 00:46:00,75.6,67.1,29.82,SSE,158,3.1,6.9,75,0.00,CLR,SKC,0.00,WeatherDisplay:10.37,2013-05-31 04:46:00,
2013-05-31 00:51:00,75.6,67.1,29.83,South,180,2.2,4.6,75,0.00,CLR,SKC,0.00,WeatherDisplay:10.37,2013-05-31 04:51:00,
2013-05-31 00:56:00,75.6,67.1,29.83,ENE,68,5.1,11.5,75,0.00,CLR,SKC,0.00,WeatherDisplay:10.37,2013-05-31 04:56:00,
2013-05-31 01:01:00,75.6,67.1,29.83,SE,135,1.8,0.0,75,0.00,CLR,SKC,0.00,WeatherDisplay:10.37,2013-05-31 05:01:00,
2013-05-31 01:06:00,75.6,67.1,29.83,SSW,202,0.7,8.1,75,0.00,CLR,SKC,0.00,WeatherDisplay:10.37,2013-05-31 05:06:00,
2013-05-31 01:11:00,75.6,67.1,29.83,SSE,158,1.9,4.6,75,0.00,CLR,SKC,0.00,WeatherDisplay:10.37,2013-05-31 05:11:00,
2013-05-31 01:16:00,75.6,67.1,29.83,South,180,0.1,4.6,75,0.00,CLR,SKC,0.00,WeatherDisplay:10.37,2013-05-31 05:16:00,
2013-05-31 01:21:00,75.6,67.1,29.82,SSE,158,3.5,5.8,75,0.00,CLR,SKC,0.00,WeatherDisplay:10.37,2013-05-31 05:21:00,
2013-05-31 01:26:00,75.6,67.1,29.82,SE,135,0.4,1.1,75,0.00,CLR,SKC,0.00,WeatherDisplay:10.37,2013-05-31 05:26:00,
2013-05-31 01:31:00,75.6,67.1,29.82,South,180,10.5,18.4,75,0.00,CLR,SKC,0.00,WeatherDisplay:10.37,2013-05-31 05:31:00,
2013-05-31 01:36:00,75.4,67.3,29.86,SSW,202,7.0,21.9,76,0.00,CLR,SKC,0.00,WeatherDisplay:10.37,2013-05-31 05:36:00,
2013-05-31 01:41:00,74.8,66.0,29.86,South,180,6.9,13.8,74,0.00,CLR,SKC,0.00,WeatherDisplay:10.37,2013-05-31 05:41:00,
2013-05-31 01:46:00,73.8,65.0,29.85,West,270,3.1,20.7,74,0.00,CLR,SKC,0.00,WeatherDisplay:10.37,2013-05-31 05:46:00,
2013-05-31 01:51:00,72.5,63.7,29.85,SW,225,2.3,8.1,74,0.00,CLR,SKC,0.00,WeatherDisplay:10.37,2013-05-31 05:51:00,
2013-05-31 01:56:00,72.0,63.6,29.85,SSW,202,4.8,4.8,75,0.00,CLR,SKC,0.00,WeatherDisplay:10.37,2013-05-31 05:56:00,
2013-05-31 02:01:00,71.4,63.5,29.85,South,180,4.2,6.3,76,0.00,CLR,SKC,0.00,WeatherDisplay:10.37,2013-05-31 06:01:00,
2013-05-31 02:06:00,71.1,63.1,29.85,SSW,202,3.7,10.4,76,0.00,CLR,SKC,0.00,WeatherDisplay:10.37,2013-05-31 06:06:00,
2013-05-31 02:11:00,70.7,63.1,29.85,SSW,202,3.5,6.9,77,0.00,CLR,SKC,0.00,WeatherDisplay:10.37,2013-05-31 06:11:00,
2013-05-31 02:16:00,70.5,63.0,29.84,West,270,3.1,5.8,77,0.00,CLR,SKC,0.00,WeatherDisplay:10.37,2013-05-31 06:16:00,
2013-05-31 02:21:00,70.3,63.2,29.83,WSW,248,0.7,3.8,78,0.00,CLR,SKC,0.00,WeatherDisplay:10.37,2013-05-31 06:21:00,
2013-05-31 02:26:00,70.0,62.4,29.83,SSW,202,0.9,4.6,77,0.00,CLR,SKC,0.00,WeatherDisplay:10.37,2013-05-31 06:26:00,
2013-05-31 02:31:00,69.6,62.5,29.82,SSE,158,2.3,3.6,78,0.00,CLR,SKC,0.00,WeatherDisplay:10.37,2013-05-31 06:31:00,
2013-05-31 02:36:00,69.4,62.6,29.82,SW,225,0.5,1.1,79,0.00,CLR,SKC,0.00,WeatherDisplay:10.37,2013-05-31 06:36:00,
2013-05-31 02:41:00,69.1,62.3,29.82,SSE,158,0.9,2.3,79,0.00,CLR,SKC,0.00,WeatherDisplay:10.37,2013-05-31 06:41:00,
2013-05-31 02:46:00,68.7,61.9,29.82,SW,225,3.3,8.1,79,0.00,CLR,SKC,0.00,WeatherDisplay:10.37,2013-05-31 06:46:00,
2013-05-31 02:51:00,68.7,61.9,29.81,SSW,202,0.9,3.5,79,0.00,CLR,SKC,0.00,WeatherDisplay:10.37,2013-05-31 06:51:00,
2013-05-31 02:56:00,68.5,61.8,29.81,SSW,202,0.1,1.8,79,0.00,CLR,SKC,0.00,WeatherDisplay:10.37,2013-05-31 06:56:00,
2013-05-31 03:01:00,68.5,62.1,29.81,WSW,248,2.1,4.6,80,0.00,CLR,SKC,0.00,WeatherDisplay:10.37,2013-05-31 07:01:00,
2013-05-31 03:06:00,68.5,62.1,29.81,SSW,202,1.1,3.5,80,0.00,CLR,SKC,0.00,WeatherDisplay:10.37,2013-05-31 07:06:00,
2013-05-31 03:11:00,68.4,61.9,29.81,SSE,158,2.9,3.5,80,0.00,CLR,SKC,0.00,WeatherDisplay:10.37,2013-05-31 07:11:00,
2013-05-31 03:16:00,68.4,61.9,29.81,ESE,112,0.4,1.1,80,0.00,CLR,SKC,0.00,WeatherDisplay:10.37,2013-05-31 07:16:00,
2013-05-31 03:21:00,68.4,61.9,29.81,SSE,158,0.0,0.0,80,0.00,CLR,SKC,0.00,WeatherDisplay:10.37,2013-05-31 07:21:00,
2013-05-31 03:26:00,68.4,61.9,29.81,SW,225,0.0,0.0,80,0.00,CLR,SKC,0.00,WeatherDisplay:10.37,2013-05-31 07:26:00,
2013-05-31 03:31:00,68.4,61.9,29.81,SW,225,0.3,5.8,80,0.00,CLR,SKC,0.00,WeatherDisplay:10.37,2013-05-31 07:31:00,
2013-05-31 03:36:00,68.2,61.8,29.80,ESE,112,1.1,4.6,80,0.00,CLR,SKC,0.00,WeatherDisplay:10.37,2013-05-31 07:36:00,
2013-05-31 03:41:00,68.4,62.3,29.80,South,180,1.2,3.1,81,0.00,CLR,SKC,0.00,WeatherDisplay:10.37,2013-05-31 07:41:00,
2013-05-31 03:46:00,68.4,62.3,29.80,SE,135,0.0,0.0,81,0.00,CLR,SKC,0.00,WeatherDisplay:10.37,2013-05-31 07:46:00,
2013-05-31 03:51:00,68.2,62.1,29.80,SW,225,0.0,0.0,81,0.00,CLR,SKC,0.00,WeatherDisplay:10.37,2013-05-31 07:51:00,
2013-05-31 03:56:00,68.2,62.1,29.80,SSE,158,0.5,2.3,81,0.00,CLR,SKC,0.00,WeatherDisplay:10.37,2013-05-31 07:56:00,
2013-05-31 04:01:00,68.2,62.1,29.79,SSE,158,0.6,2.3,81,0.00,CLR,SKC,0.00,WeatherDisplay:10.37,2013-05-31 08:01:00,
2013-05-31 04:06:00,67.8,61.8,29.79,SSE,158,0.0,0.0,81,0.00,CLR,SKC,0.00,WeatherDisplay:10.37,2013-05-31 08:06:00,
2013-05-31 04:11:00,67.8,61.8,29.79,SE,135,1.4,3.5,81,0.00,CLR,SKC,0.00,WeatherDisplay:10.37,2013-05-31 08:11:00,
2013-05-31 04:16:00,67.8,61.8,29.79,ENE,68,2.9,5.8,81,0.00,CLR,SKC,0.00,WeatherDisplay:10.37,2013-05-31 08:16:00,
2013-05-31 04:21:00,67.8,61.8,29.79,SSW,202,0.5,1.1,81,0.02,RA,SKC,0.02,WeatherDisplay:10.37,2013-05-31 08:21:00,
2013-05-31 04:26:00,67.8,61.8,29.79,South,180,1.1,2.3,81,0.02,RA,SKC,0.02,WeatherDisplay:10.37,2013-05-31 08:26:00,
2013-05-31 04:31:00,67.8,61.8,29.79,SW,225,0.2,1.1,81,0.02,CLR,SKC,0.02,WeatherDisplay:10.37,2013-05-31 08:31:00,
2013-05-31 04:36:00,67.8,61.8,29.79,SE,135,0.4,1.1,81,0.02,CLR,SKC,0.02,WeatherDisplay:10.37,2013-05-31 08:36:00,
2013-05-31 04:41:00,67.8,61.8,29.79,SE,135,0.7,2.3,81,0.02,CLR,SKC,0.02,WeatherDisplay:10.37,2013-05-31 08:41:00,
2013-05-31 04:46:00,67.8,61.8,29.79,ESE,112,3.7,4.6,81,0.02,CLR,SKC,0.02,WeatherDisplay:10.37,2013-05-31 08:46:00,
2013-05-31 04:51:00,67.8,61.8,29.79,SW,225,1.0,2.3,81,0.02,CLR,SKC,0.02,WeatherDisplay:10.37,2013-05-31 08:51:00,
2013-05-31 04:56:00,67.8,61.8,29.79,SE,135,1.5,3.5,81,0.02,CLR,SKC,0.02,WeatherDisplay:10.37,2013-05-31 08:56:00,
2013-05-31 05:01:00,67.8,61.8,29.80,SSW,202,2.6,8.1,81,0.02,CLR,SKC,0.02,WeatherDisplay:10.37,2013-05-31 09:01:00,
2013-05-31 05:06:00,67.8,61.8,29.79,SW,225,4.1,5.8,81,0.02,CLR,SKC,0.02,WeatherDisplay:10.37,2013-05-31 09:06:00,
2013-05-31 05:11:00,68.2,62.1,29.79,SSE,158,0.4,1.1,81,0.02,CLR,SKC,0.02,WeatherDisplay:10.37,2013-05-31 09:11:00,
2013-05-31 05:16:00,68.2,62.1,29.79,SSE,158,1.1,4.6,81,0.02,CLR,SKC,0.02,WeatherDisplay:10.37,2013-05-31 09:16:00,
2013-05-31 05:21:00,68.4,62.3,29.80,WNW,292,0.8,3.5,81,0.00,CLR,SKC,0.02,WeatherDisplay:10.37,2013-05-31 09:21:00,
2013-05-31 05:26:00,68.5,62.5,29.79,SSE,158,1.5,3.5,81,0.00,CLR,SKC,0.02,WeatherDisplay:10.37,2013-05-31 09:26:00,
2013-05-31 05:31:00,68.7,62.7,29.79,SW,225,3.2,4.6,81,0.00,CLR,SKC,0.02,WeatherDisplay:10.37,2013-05-31 09:31:00,
2013-05-31 05:36:00,68.7,62.7,29.80,SSW,202,2.5,3.5,81,0.00,CLR,SKC,0.02,WeatherDisplay:10.37,2013-05-31 09:36:00,
2013-05-31 05:41:00,68.7,62.7,29.80,SSE,158,1.6,4.6,81,0.00,CLR,SKC,0.02,WeatherDisplay:10.37,2013-05-31 09:41:00,
2013-05-31 05:46:00,68.9,63.2,29.80,SW,225,2.9,4.6,82,0.00,CLR,SKC,0.02,WeatherDisplay:10.37,2013-05-31 09:46:00,
2013-05-31 05:51:00,68.9,63.2,29.80,SSW,202,2.9,5.8,82,0.00,CLR,SKC,0.02,WeatherDisplay:10.37,2013-05-31 09:51:00,
2013-05-31 05:56:00,68.9,63.2,29.80,SSE,158,4.0,6.9,82,0.00,CLR,SKC,0.02,WeatherDisplay:10.37,2013-05-31 09:56:00,
2013-05-31 06:01:00,68.7,63.0,29.81,South,180,1.6,3.5,82,0.00,CLR,SKC,0.02,WeatherDisplay:10.37,2013-05-31 10:01:00,
2013-05-31 06:06:00,68.7,63.0,29.80,South,180,2.9,3.5,82,0.00,CLR,SKC,0.02,WeatherDisplay:10.37,2013-05-31 10:06:00,
2013-05-31 06:11:00,68.7,62.7,29.80,South,180,4.6,11.5,81,0.02,RA,SKC,0.04,WeatherDisplay:10.37,2013-05-31 10:11:00,
2013-05-31 06:16:00,68.5,62.5,29.80,ESE,112,4.2,6.9,81,0.02,RA,SKC,0.04,WeatherDisplay:10.37,2013-05-31 10:16:00,
2013-05-31 06:21:00,68.4,62.3,29.81,SE,135,0.5,3.5,81,0.02,,SKC,0.04,WeatherDisplay:10.37,2013-05-31 10:21:00,
2013-05-31 06:26:00,68.2,62.1,29.80,East,90,2.4,5.8,81,0.02,CLR,SKC,0.04,WeatherDisplay:10.37,2013-05-31 10:26:00,
2013-05-31 06:31:00,68.0,61.9,29.82,South,180,3.8,6.9,81,0.02,CLR,SKC,0.04,WeatherDisplay:10.37,2013-05-31 10:31:00,
2013-05-31 06:36:00,67.8,62.1,29.82,SE,135,2.8,5.8,82,0.02,CLR,SKC,0.04,WeatherDisplay:10.37,2013-05-31 10:36:00,
2013-05-31 06:41:00,67.6,61.9,29.82,SSW,202,2.8,4.6,82,0.02,CLR,SKC,0.04,WeatherDisplay:10.37,2013-05-31 10:41:00,
2013-05-31 06:46:00,67.3,61.6,29.82,South,180,0.8,2.3,82,0.02,CLR,SKC,0.04,WeatherDisplay:10.37,2013-05-31 10:46:00,
2013-05-31 06:51:00,67.1,61.4,29.82,South,180,2.1,4.6,82,0.04,RA,SKC,0.06,WeatherDisplay:10.37,2013-05-31 10:51:00,
2013-05-31 06:56:00,66.9,61.2,29.82,SSW,202,1.5,3.5,82,0.04,RA,SKC,0.06,WeatherDisplay:10.37,2013-05-31 10:56:00,
2013-05-31 07:01:00,66.7,61.1,29.82,WSW,248,1.7,2.3,82,0.04,,SKC,0.06,WeatherDisplay:10.37,2013-05-31 11:01:00,
2013-05-31 07:06:00,66.7,61.1,29.82,SE,135,0.3,4.6,82,0.04,CLR,SKC,0.06,WeatherDisplay:10.37,2013-05-31 11:06:00,
2013-05-31 07:11:00,66.4,60.7,29.82,SSE,158,1.4,3.5,82,0.02,CLR,SKC,0.06,WeatherDisplay:10.37,2013-05-31 11:11:00,
2013-05-31 07:16:00,66.4,60.7,29.82,East,90,0.9,4.6,82,0.02,CLR,SKC,0.06,WeatherDisplay:10.37,2013-05-31 11:16:00,
2013-05-31 07:21:00,66.2,60.5,29.80,South,180,1.2,3.5,82,0.02,CLR,SKC,0.06,WeatherDisplay:10.37,2013-05-31 11:21:00,
2013-05-31 07:26:00,66.0,60.0,29.81,SE,135,2.3,6.9,81,0.02,CLR,SKC,0.06,WeatherDisplay:10.37,2013-05-31 11:26:00,
2013-05-31 07:31:00,66.0,60.0,29.83,West,270,3.6,4.6,81,0.02,CLR,SKC,0.06,WeatherDisplay:10.37,2013-05-31 11:31:00,
2013-05-31 07:36:00,66.0,60.0,29.83,West,270,3.8,5.8,81,0.02,CLR,SKC,0.06,WeatherDisplay:10.37,2013-05-31 11:36:00,
2013-05-31 07:41:00,66.0,60.0,29.84,West,270,0.1,1.1,81,0.02,CLR,SKC,0.06,WeatherDisplay:10.37,2013-05-31 11:41:00,
2013-05-31 07:46:00,66.0,60.0,29.83,SE,135,0.8,3.5,81,0.02,CLR,SKC,0.06,WeatherDisplay:10.37,2013-05-31 11:46:00,
2013-05-31 07:51:00,66.0,60.0,29.82,South,180,1.8,4.6,81,0.00,CLR,SKC,0.06,WeatherDisplay:10.37,2013-05-31 11:51:00,
2013-05-31 07:56:00,66.0,59.7,29.82,SSE,158,3.3,4.6,80,0.00,CLR,SKC,0.06,WeatherDisplay:10.37,2013-05-31 11:56:00,
2013-05-31 08:01:00,65.8,59.5,29.82,SSE,158,0.0,0.0,80,0.00,CLR,SKC,0.06,WeatherDisplay:10.37,2013-05-31 12:01:00,
2013-05-31 08:06:00,66.0,59.7,29.83,SSE,158,0.3,1.1,80,0.02,RA,SKC,0.08,WeatherDisplay:10.37,2013-05-31 12:06:00,
2013-05-31 08:11:00,66.0,59.7,29.83,SE,135,1.0,2.3,80,0.02,RA,SKC,0.08,WeatherDisplay:10.37,2013-05-31 12:11:00,
2013-05-31 08:16:00,66.0,59.7,29.82,NNW,338,0.0,0.0,80,0.02,CLR,SKC,0.08,WeatherDisplay:10.37,2013-05-31 12:16:00,
2013-05-31 08:21:00,66.0,59.7,29.82,SE,135,1.8,4.6,80,0.02,CLR,SKC,0.08,WeatherDisplay:10.37,2013-05-31 12:21:00,
2013-05-31 08:26:00,66.0,59.7,29.83,ENE,68,0.0,0.0,80,0.02,CLR,SKC,0.08,WeatherDisplay:10.37,2013-05-31 12:26:00,
2013-05-31 08:31:00,66.0,59.7,29.82,ESE,112,1.0,3.5,80,0.02,CLR,SKC,0.08,WeatherDisplay:10.37,2013-05-31 12:31:00,
2013-05-31 08:36:00,66.0,59.7,29.83,ESE,112,0.0,0.0,80,0.02,CLR,SKC,0.08,WeatherDisplay:10.37,2013-05-31 12:36:00,
2013-05-31 08:41:00,66.0,59.7,29.82,SSE,158,1.7,2.3,80,0.02,CLR,SKC,0.08,WeatherDisplay:10.37,2013-05-31 12:41:00,
2013-05-31 08:46:00,66.2,59.8,29.82,SSE,158,0.4,1.1,80,0.02,CLR,SKC,0.08,WeatherDisplay:10.37,2013-05-31 12:46:00,
2013-05-31 08:51:00,66.6,59.8,29.82,SSE,158,1.8,5.8,79,0.02,CLR,SKC,0.08,WeatherDisplay:10.37,2013-05-31 12:51:00,
2013-05-31 08:56:00,66.9,60.2,29.83,SSW,202,0.0,2.3,79,0.02,CLR,SKC,0.08,WeatherDisplay:10.37,2013-05-31 12:56:00,
2013-05-31 09:01:00,67.6,60.9,29.83,SSW,202,0.0,0.0,79,0.02,CLR,SKC,0.08,WeatherDisplay:10.37,2013-05-31 13:01:00,
2013-05-31 09:06:00,68.0,61.6,29.83,South,180,1.1,5.8,80,0.00,CLR,SKC,0.08,WeatherDisplay:10.37,2013-05-31 13:06:00,
2013-05-31 09:11:00,68.5,62.5,29.84,SSW,202,0.2,1.1,81,0.00,CLR,SKC,0.08,WeatherDisplay:10.37,2013-05-31 13:11:00,
2013-05-31 09:16:00,68.7,62.7,29.84,SSW,202,0.3,2.3,81,0.00,CLR,SKC,0.08,WeatherDisplay:10.37,2013-05-31 13:16:00,
2013-05-31 09:21:00,69.1,63.4,29.85,SSE,158,0.5,2.3,82,0.00,CLR,SKC,0.08,WeatherDisplay:10.37,2013-05-31 13:21:00,
2013-05-31 09:26:00,69.1,63.4,29.85,SW,225,0.3,2.3,82,0.00,CLR,SKC,0.08,WeatherDisplay:10.37,2013-05-31 13:26:00,
2013-05-31 09:31:00,69.1,63.4,29.86,SSW,202,0.9,2.3,82,0.00,CLR,SKC,0.08,WeatherDisplay:10.37,2013-05-31 13:31:00,
2013-05-31 09:36:00,69.1,63.4,29.85,SSE,158,3.0,5.8,82,0.00,CLR,SKC,0.08,WeatherDisplay:10.37,2013-05-31 13:36:00,
2013-05-31 09:41:00,69.1,63.4,29.85,SE,135,2.2,4.6,82,0.00,CLR,SKC,0.08,WeatherDisplay:10.37,2013-05-31 13:41:00,
2013-05-31 09:46:00,69.4,63.7,29.84,SE,135,3.5,6.9,82,0.00,CLR,SKC,0.08,WeatherDisplay:10.37,2013-05-31 13:46:00,
2013-05-31 09:51:00,69.8,64.1,29.84,South,180,4.1,6.3,82,0.00,CLR,SKC,0.08,WeatherDisplay:10.37,2013-05-31 13:51:00,
2013-05-31 09:56:00,70.5,64.8,29.84,South,180,2.8,4.6,82,0.00,CLR,SKC,0.08,WeatherDisplay:10.37,2013-05-31 13:56:00,
2013-05-31 10:01:00,71.1,65.3,29.84,South,180,3.0,8.1,82,0.00,CLR,SKC,0.08,WeatherDisplay:10.37,2013-05-31 14:01:00,
2013-05-31 10:06:00,71.4,65.3,29.84,South,180,0.9,3.6,81,0.00,CLR,SKC,0.08,WeatherDisplay:10.37,2013-05-31 14:06:00,
2013-05-31 10:11:00,71.6,65.5,29.84,SSE,158,1.6,4.6,81,0.00,CLR,SKC,0.08,WeatherDisplay:10.37,2013-05-31 14:11:00,
2013-05-31 10:16:00,71.8,65.3,29.83,SE,135,0.3,4.6,80,0.00,CLR,SKC,0.08,WeatherDisplay:10.37,2013-05-31 14:16:00,
2013-05-31 10:21:00,72.0,65.5,29.83,SSW,202,1.8,3.5,80,0.00,CLR,SKC,0.08,WeatherDisplay:10.37,2013-05-31 14:21:00,
2013-05-31 10:26:00,72.1,65.3,29.82,SSE,158,2.0,7.8,79,0.00,CLR,SKC,0.08,WeatherDisplay:10.37,2013-05-31 14:26:00,
2013-05-31 10:31:00,72.3,65.4,29.83,WSW,248,2.4,11.5,79,0.00,CLR,SKC,0.08,WeatherDisplay:10.37,2013-05-31 14:31:00,
2013-05-31 10:36:00,72.9,66.0,29.82,SW,225,3.8,9.6,79,0.00,CLR,SKC,0.08,WeatherDisplay:10.37,2013-05-31 14:36:00,
2013-05-31 10:41:00,73.2,66.3,29.82,SSW,202,1.7,2.3,79,0.00,CLR,SKC,0.08,WeatherDisplay:10.37,2013-05-31 14:41:00,
2013-05-31 10:46:00,73.9,66.6,29.82,SW,225,5.0,10.4,78,0.00,CLR,SKC,0.08,WeatherDisplay:10.37,2013-05-31 14:46:00,
2013-05-31 10:51:00,73.9,66.3,29.82,ESE,112,1.7,4.6,77,0.00,CLR,SKC,0.08,WeatherDisplay:10.37,2013-05-31 14:51:00,
2013-05-31 10:56:00,74.3,66.6,29.81,SSW,202,1.1,3.5,77,0.00,CLR,SKC,0.08,WeatherDisplay:10.37,2013-05-31 14:56:00,
2013-05-31 11:01:00,74.7,67.0,29.82,ESE,112,2.9,8.1,77,0.00,CLR,SKC,0.08,WeatherDisplay:10.37,2013-05-31 15:01:00,
2013-05-31 11:06:00,74.7,66.6,29.83,SSW,202,4.0,9.2,76,0.00,CLR,SKC,0.08,WeatherDisplay:10.37,2013-05-31 15:06:00,
2013-05-31 11:11:00,74.1,66.1,29.83,SSW,202,1.3,2.3,76,0.00,CLR,SKC,0.08,WeatherDisplay:10.37,2013-05-31 15:11:00,
2013-05-31 11:16:00,73.9,65.9,29.84,SE,135,3.9,11.5,76,0.00,CLR,SKC,0.08,WeatherDisplay:10.37,2013-05-31 15:16:00,
2013-05-31 11:21:00,73.2,65.6,29.83,ESE,112,4.4,8.1,77,0.00,CLR,SKC,0.08,WeatherDisplay:10.37,2013-05-31 15:21:00,
2013-05-31 11:26:00,73.0,65.4,29.84,SW,225,5.0,10.7,77,0.00,CLR,SKC,0.08,WeatherDisplay:10.37,2013-05-31 15:26:00,
2013-05-31 11:31:00,72.7,65.4,29.83,East,90,3.4,5.8,78,0.00,CLR,SKC,0.08,WeatherDisplay:10.37,2013-05-31 15:31:00,
2013-05-31 11:36:00,72.3,65.1,29.84,SSW,202,2.4,5.8,78,0.00,CLR,SKC,0.08,WeatherDisplay:10.37,2013-05-31 15:36:00,
2013-05-31 11:41:00,72.3,65.4,29.84,SSW,202,2.4,3.5,79,0.00,CLR,SKC,0.08,WeatherDisplay:10.37,2013-05-31 15:41:00,
2013-05-31 11:46:00,72.3,65.4,29.85,SSW,202,1.6,2.3,79,0.00,CLR,SKC,0.08,WeatherDisplay:10.37,2013-05-31 15:46:00,
2013-05-31 11:51:00,72.1,65.3,29.85,South,180,2.6,3.5,79,0.00,CLR,SKC,0.08,WeatherDisplay:10.37,2013-05-31 15:51:00,
2013-05-31 11:56:00,72.1,65.3,29.85,SSW,202,3.5,5.8,79,0.00,CLR,SKC,0.08,WeatherDisplay:10.37,2013-05-31 15:56:00,
2013-05-31 12:01:00,72.0,65.1,29.85,SSE,158,4.8,8.1,79,0.00,CLR,SKC,0.08,WeatherDisplay:10.37,2013-05-31 16:01:00,
2013-05-31 12:06:00,72.1,65.6,29.85,SW,225,1.0,3.5,80,0.00,CLR,SKC,0.08,WeatherDisplay:10.37,2013-05-31 16:06:00,
2013-05-31 12:11:00,72.1,65.6,29.85,South,180,0.5,4.6,80,0.00,CLR,SKC,0.08,WeatherDisplay:10.37,2013-05-31 16:11:00,
2013-05-31 12:16:00,72.1,65.6,29.85,South,180,1.0,2.3,80,0.00,CLR,SKC,0.08,WeatherDisplay:10.37,2013-05-31 16:16:00,
2013-05-31 12:21:00,72.5,66.0,29.84,SSW,202,3.2,4.6,80,0.00,CLR,SKC,0.08,WeatherDisplay:10.37,2013-05-31 16:21:00,
2013-05-31 12:26:00,72.9,66.3,29.85,SSW,202,4.4,9.2,80,0.00,CLR,SKC,0.08,WeatherDisplay:10.37,2013-05-31 16:26:00,
2013-05-31 12:31:00,73.0,66.5,29.84,SE,135,0.8,2.3,80,0.00,CLR,SKC,0.08,WeatherDisplay:10.37,2013-05-31 16:31:00,
2013-05-31 12:36:00,73.2,66.7,29.84,South,180,2.5,3.5,80,0.00,CLR,SKC,0.08,WeatherDisplay:10.37,2013-05-31 16:36:00,
2013-05-31 12:41:00,73.4,66.9,29.84,SW,225,3.3,4.6,80,0.00,CLR,SKC,0.08,WeatherDisplay:10.37,2013-05-31 16:41:00,
2013-05-31 12:46:00,73.6,67.0,29.83,South,180,2.3,4.6,80,0.00,CLR,SKC,0.08,WeatherDisplay:10.37,2013-05-31 16:46:00,
2013-05-31 12:51:00,73.8,66.8,29.83,SSW,202,1.4,4.7,79,0.00,CLR,SKC,0.08,WeatherDisplay:10.37,2013-05-31 16:51:00,
2013-05-31 12:56:00,73.9,67.0,29.84,South,180,2.4,5.8,79,0.00,CLR,SKC,0.08,WeatherDisplay:10.37,2013-05-31 16:56:00,
2013-05-31 13:01:00,74.1,67.2,29.83,South,180,1.3,2.3,79,0.00,CLR,SKC,0.08,WeatherDisplay:10.37,2013-05-31 17:01:00,
2013-05-31 13:06:00,74.3,67.0,29.83,SSW,202,1.7,8.1,78,0.00,CLR,SKC,0.08,WeatherDisplay:10.37,2013-05-31 17:06:00,
2013-05-31 13:11:00,74.3,67.0,29.83,SE,135,2.4,5.8,78,0.00,CLR,SKC,0.08,WeatherDisplay:10.37,2013-05-31 17:11:00,
2013-05-31 13:16:00,74.3,67.0,29.83,East,90,5.0,8.1,78,0.00,CLR,SKC,0.08,WeatherDisplay:10.37,2013-05-31 17:16:00,
2013-05-31 13:21:00,74.3,67.0,29.83,ESE,112,0.7,2.3,78,0.00,CLR,SKC,0.08,WeatherDisplay:10.37,2013-05-31 17:21:00,
2013-05-31 13:26:00,74.1,67.2,29.83,SSW,202,2.6,4.6,79,0.00,CLR,SKC,0.08,WeatherDisplay:10.37,2013-05-31 17:26:00,
2013-05-31 13:31:00,74.3,67.4,29.83,SSW,202,1.7,5.8,79,0.00,CLR,SKC,0.08,WeatherDisplay:10.37,2013-05-31 17:31:00,
2013-05-31 13:36:00,74.3,67.4,29.82,SSW,202,3.5,4.6,79,0.00,CLR,SKC,0.08,WeatherDisplay:10.37,2013-05-31 17:36:00,
2013-05-31 13:41:00,74.3,67.0,29.82,SW,225,4.2,5.8,78,0.00,CLR,SKC,0.08,WeatherDisplay:10.37,2013-05-31 17:41:00,
2013-05-31 13:46:00,74.5,67.2,29.82,SSW,202,2.4,4.6,78,0.00,CLR,SKC,0.08,WeatherDisplay:10.37,2013-05-31 17:46:00,
2013-05-31 13:51:00,74.8,67.5,29.82,SSE,158,0.2,3.5,78,0.00,CLR,SKC,0.08,WeatherDisplay:10.37,2013-05-31 17:51:00,
2013-05-31 13:56:00,75.6,68.2,29.82,South,180,2.0,4.6,78,0.00,CLR,SKC,0.08,WeatherDisplay:10.37,2013-05-31 17:56:00,
2013-05-31 14:01:00,76.3,68.5,29.80,SSW,202,2.1,3.5,77,0.00,CLR,SKC,0.08,WeatherDisplay:10.37,2013-05-31 18:01:00,
2013-05-31 14:06:00,77.0,69.2,29.81,SE,135,1.4,3.5,77,0.00,CLR,SKC,0.08,WeatherDisplay:10.37,2013-05-31 18:06:00,
2013-05-31 14:11:00,77.7,69.2,29.80,SE,135,1.1,4.0,75,0.00,CLR,SKC,0.08,WeatherDisplay:10.37,2013-05-31 18:11:00,
2013-05-31 14:16:00,78.4,69.9,29.80,West,270,5.9,15.0,75,0.00,CLR,SKC,0.08,WeatherDisplay:10.37,2013-05-31 18:16:00,
2013-05-31 14:21:00,79.0,70.0,29.80,SE,135,3.6,8.1,74,0.00,CLR,SKC,0.08,WeatherDisplay:10.37,2013-05-31 18:21:00,
2013-05-31 14:26:00,79.3,69.5,29.79,South,180,2.4,3.6,72,0.00,CLR,SKC,0.08,WeatherDisplay:10.37,2013-05-31 18:26:00,
2013-05-31 14:31:00,79.5,69.7,29.80,NE,45,0.4,2.0,72,0.00,CLR,SKC,0.08,WeatherDisplay:10.37,2013-05-31 18:31:00,
2013-05-31 14:36:00,79.5,69.7,29.80,SSW,202,4.3,11.5,72,0.00,CLR,SKC,0.08,WeatherDisplay:10.37,2013-05-31 18:36:00,
2013-05-31 14:41:00,79.5,69.7,29.80,SE,135,0.9,3.5,72,0.00,CLR,SKC,0.08,WeatherDisplay:10.37,2013-05-31 18:41:00,
2013-05-31 14:46:00,79.0,69.2,29.80,ENE,68,2.9,4.6,72,0.00,CLR,SKC,0.08,WeatherDisplay:10.37,2013-05-31 18:46:00,
2013-05-31 14:51:00,79.0,69.6,29.79,SE,135,1.5,5.8,73,0.00,CLR,SKC,0.08,WeatherDisplay:10.37,2013-05-31 18:51:00,
2013-05-31 14:56:00,79.0,69.6,29.79,SSE,158,2.2,4.9,73,0.00,CLR,SKC,0.08,WeatherDisplay:10.37,2013-05-31 18:56:00,
2013-05-31 15:01:00,79.3,69.5,29.80,SSW,202,3.2,6.0,72,0.00,CLR,SKC,0.08,WeatherDisplay:10.37,2013-05-31 19:01:00,
2013-05-31 15:06:00,79.5,69.7,29.80,SW,225,5.8,10.4,72,0.00,CLR,SKC,0.08,WeatherDisplay:10.37,2013-05-31 19:06:00,
2013-05-31 15:11:00,79.5,69.3,29.79,South,180,4.4,8.1,71,0.00,CLR,SKC,0.08,WeatherDisplay:10.37,2013-05-31 19:11:00,
2013-05-31 15:16:00,79.5,69.3,29.80,WSW,248,7.7,18.4,71,0.00,CLR,SKC,0.08,WeatherDisplay:10.37,2013-05-31 19:16:00,
2013-05-31 15:21:00,79.5,69.3,29.79,West,270,7.8,15.0,71,0.00,CLR,SKC,0.08,WeatherDisplay:10.37,2013-05-31 19:21:00,
2013-05-31 15:26:00,80.2,70.0,29.79,SSE,158,2.8,16.1,71,0.00,CLR,SKC,0.08,WeatherDisplay:10.37,2013-05-31 19:26:00,
2013-05-31 15:31:00,80.6,69.9,29.79,SW,225,3.8,8.1,70,0.00,CLR,SKC,0.08,WeatherDisplay:10.37,2013-05-31 19:31:00,
2013-05-31 15:36:00,80.4,69.3,29.79,SSE,158,2.2,4.6,69,0.00,CLR,SKC,0.08,WeatherDisplay:10.37,2013-05-31 19:36:00,
2013-05-31 15:41:00,80.2,69.1,29.78,WSW,248,0.8,2.5,69,0.00,CLR,SKC,0.08,WeatherDisplay:10.37,2013-05-31 19:41:00,
2013-05-31 15:46:00,80.2,69.6,29.79,South,180,1.2,3.5,70,0.00,CLR,SKC,0.08,WeatherDisplay:10.37,2013-05-31 19:46:00,
2013-05-31 15:51:00,80.1,69.4,29.78,SW,225,3.0,5.8,70,0.00,CLR,SKC,0.08,WeatherDisplay:10.37,2013-05-31 19:51:00,
2013-05-31 15:56:00,79.9,69.2,29.77,NE,45,2.8,4.6,70,0.00,CLR,SKC,0.08,WeatherDisplay:10.37,2013-05-31 19:56:00,
2013-05-31 16:01:00,80.2,70.0,29.78,South,180,4.4,9.2,71,0.00,CLR,SKC,0.08,WeatherDisplay:10.37,2013-05-31 20:01:00,
2013-05-31 16:06:00,80.4,69.7,29.77,NE,45,3.6,5.8,70,0.00,CLR,SKC,0.08,WeatherDisplay:10.37,2013-05-31 20:06:00,
2013-05-31 16:11:00,81.1,70.0,29.77,ESE,112,0.9,3.5,69,0.00,CLR,SKC,0.08,WeatherDisplay:10.37,2013-05-31 20:11:00,
2013-05-31 16:16:00,81.7,70.5,29.77,SE,135,2.1,4.6,69,0.00,CLR,SKC,0.08,WeatherDisplay:10.37,2013-05-31 20:16:00,
2013-05-31 16:21:00,82.0,70.4,29.76,SW,225,2.1,3.5,68,0.00,CLR,SKC,0.08,WeatherDisplay:10.37,2013-05-31 20:21:00,
2013-05-31 16:26:00,82.0,69.6,29.76,SSW,202,1.7,2.3,66,0.00,CLR,SKC,0.08,WeatherDisplay:10.37,2013-05-31 20:26:00,
2013-05-31 16:31:00,81.9,69.4,29.75,SW,225,2.7,4.6,66,0.00,CLR,SKC,0.08,WeatherDisplay:10.37,2013-05-31 20:31:00,
2013-05-31 16:36:00,81.5,69.0,29.74,SSW,202,3.4,4.6,66,0.00,CLR,SKC,0.08,WeatherDisplay:10.37,2013-05-31 20:36:00,
2013-05-31 16:41:00,81.3,68.9,29.74,SW,225,1.8,4.6,66,0.00,CLR,SKC,0.08,WeatherDisplay:10.37,2013-05-31 20:41:00,
2013-05-31 16:46:00,81.3,69.3,29.75,WSW,248,1.4,3.5,67,0.00,CLR,SKC,0.08,WeatherDisplay:10.37,2013-05-31 20:46:00,
2013-05-31 16:51:00,81.3,69.3,29.74,WNW,292,3.4,5.8,67,0.00,CLR,SKC,0.08,WeatherDisplay:10.37,2013-05-31 20:51:00,
2013-05-31 16:56:00,81.1,68.7,29.74,SSW,202,4.7,10.4,66,0.00,CLR,SKC,0.08,WeatherDisplay:10.37,2013-05-31 20:56:00,
2013-05-31 17:01:00,81.1,69.6,29.74,South,180,0.1,2.9,68,0.00,CLR,SKC,0.08,WeatherDisplay:10.37,2013-05-31 21:01:00,
2013-05-31 17:06:00,81.3,69.3,29.75,SW,225,3.9,6.3,67,0.00,CLR,SKC,0.08,WeatherDisplay:10.37,2013-05-31 21:06:00,
2013-05-31 17:11:00,81.3,69.3,29.74,South,180,4.2,5.8,67,0.00,CLR,SKC,0.08,WeatherDisplay:10.37,2013-05-31 21:11:00,
2013-05-31 17:16:00,81.1,69.1,29.74,SE,135,3.6,8.1,67,0.00,CLR,SKC,0.08,WeatherDisplay:10.37,2013-05-31 21:16:00,
2013-05-31 17:21:00,81.1,69.1,29.74,SE,135,0.4,3.5,67,0.00,CLR,SKC,0.08,WeatherDisplay:10.37,2013-05-31 21:21:00,
2013-05-31 17:26:00,81.1,69.1,29.74,SE,135,3.8,8.1,67,0.00,CLR,SKC,0.08,WeatherDisplay:10.37,2013-05-31 21:26:00,
2013-05-31 17:31:00,81.0,69.0,29.74,South,180,5.4,8.1,67,0.00,CLR,SKC,0.08,WeatherDisplay:10.37,2013-05-31 21:31:00,
2013-05-31 17:36:00,81.0,69.0,29.74,SE,135,1.9,4.6,67,0.00,CLR,SKC,0.08,WeatherDisplay:10.37,2013-05-31 21:36:00,
2013-05-31 17:41:00,80.8,68.8,29.74,SSW,202,3.5,6.9,67,0.00,CLR,SKC,0.08,WeatherDisplay:10.37,2013-05-31 21:41:00,
2013-05-31 17:46:00,80.4,68.9,29.75,SSW,202,2.8,8.1,68,0.00,CLR,SKC,0.08,WeatherDisplay:10.37,2013-05-31 21:46:00,
2013-05-31 17:51:00,80.4,68.9,29.75,SSW,202,3.4,5.8,68,0.00,CLR,SKC,0.08,WeatherDisplay:10.37,2013-05-31 21:51:00,
2013-05-31 17:56:00,80.4,69.3,29.75,South,180,0.6,2.3,69,0.00,CLR,SKC,0.08,WeatherDisplay:10.37,2013-05-31 21:56:00,
2013-05-31 18:01:00,80.4,69.3,29.74,SSW,202,3.1,12.7,69,0.00,CLR,SKC,0.08,WeatherDisplay:10.37,2013-05-31 22:01:00,
2013-05-31 18:06:00,80.8,69.7,29.74,SW,225,0.5,1.1,69,0.00,CLR,SKC,0.08,WeatherDisplay:10.37,2013-05-31 22:06:00,
2013-05-31 18:11:00,80.6,69.5,29.74,SE,135,1.1,3.5,69,0.00,CLR,SKC,0.08,WeatherDisplay:10.37,2013-05-31 22:11:00,
2013-05-31 18:16:00,80.2,69.1,29.73,SE,135,0.0,3.5,69,0.00,CLR,SKC,0.08,WeatherDisplay:10.37,2013-05-31 22:16:00,
2013-05-31 18:21:00,79.9,69.2,29.73,SSE,158,0.0,0.0,70,0.00,CLR,SKC,0.08,WeatherDisplay:10.37,2013-05-31 22:21:00,
2013-05-31 18:26:00,79.5,68.9,29.74,SSE,158,0.5,1.1,70,0.00,CLR,SKC,0.08,WeatherDisplay:10.37,2013-05-31 22:26:00,
2013-05-31 18:31:00,79.5,69.3,29.74,SE,135,0.0,0.0,71,0.00,CLR,SKC,0.08,WeatherDisplay:10.37,2013-05-31 22:31:00,
2013-05-31 18:36:00,79.5,69.3,29.74,SSE,158,0.3,4.6,71,0.00,CLR,SKC,0.08,WeatherDisplay:10.37,2013-05-31 22:36:00,
2013-05-31 18:41:00,79.5,69.3,29.74,SSE,158,3.2,3.6,71,0.00,CLR,SKC,0.08,WeatherDisplay:10.37,2013-05-31 22:41:00,
2013-05-31 18:46:00,79.5,69.3,29.74,WSW,248,0.9,3.5,71,0.00,CLR,SKC,0.08,WeatherDisplay:10.37,2013-05-31 22:46:00,
2013-05-31 18:51:00,79.5,69.3,29.74,East,90,3.8,6.9,71,0.00,CLR,SKC,0.08,WeatherDisplay:10.37,2013-05-31 22:51:00,
2013-05-31 18:56:00,79.3,69.1,29.73,SSE,158,4.8,9.4,71,0.00,CLR,SKC,0.08,WeatherDisplay:10.37,2013-05-31 22:56:00,
2013-05-31 19:01:00,79.7,69.0,29.74,SSE,158,4.0,5.8,70,0.00,CLR,SKC,0.08,WeatherDisplay:10.37,2013-05-31 23:01:00,
2013-05-31 19:06:00,79.7,69.0,29.73,SW,225,2.8,4.6,70,0.00,CLR,SKC,0.08,WeatherDisplay:10.37,2013-05-31 23:06:00,
2013-05-31 19:11:00,79.3,68.7,29.72,SE,135,0.2,4.6,70,0.00,CLR,SKC,0.08,WeatherDisplay:10.37,2013-05-31 23:11:00,
2013-05-31 19:16:00,78.8,68.6,29.72,SE,135,2.0,8.0,71,0.00,CLR,SKC,0.08,WeatherDisplay:10.37,2013-05-31 23:16:00,
2013-05-31 19:21:00,78.4,68.3,29.72,SE,135,1.1,3.5,71,0.00,CLR,SKC,0.08,WeatherDisplay:10.37,2013-05-31 23:21:00,
2013-05-31 19:26:00,77.9,68.1,29.72,ESE,112,0.6,3.5,72,0.00,CLR,SKC,0.08,WeatherDisplay:10.37,2013-05-31 23:26:00,
2013-05-31 19:31:00,77.7,68.0,29.71,SE,135,2.1,3.5,72,0.00,CLR,SKC,0.08,WeatherDisplay:10.37,2013-05-31 23:31:00,
2013-05-31 19:36:00,77.5,68.2,29.71,SW,225,0.0,2.3,73,0.00,CLR,SKC,0.08,WeatherDisplay:10.37,2013-05-31 23:36:00,
2013-05-31 19:41:00,77.0,68.1,29.71,SE,135,0.0,3.5,74,0.00,CLR,SKC,0.08,WeatherDisplay:10.37,2013-05-31 23:41:00,
2013-05-31 19:46:00,76.8,67.9,29.70,ESE,112,1.7,2.3,74,0.00,CLR,SKC,0.08,WeatherDisplay:10.37,2013-05-31 23:46:00,
2013-05-31 19:51:00,76.6,68.1,29.69,SE,135,1.3,3.5,75,0.00,CLR,SKC,0.08,WeatherDisplay:10.37,2013-05-31 23:51:00,
2013-05-31 19:56:00,76.3,67.8,29.69,SE,135,3.8,8.1,75,0.00,CLR,SKC,0.08,WeatherDisplay:10.37,2013-05-31 23:56:00,
2013-05-31 20:01:00,76.3,68.2,29.69,North,0,5.9,6.9,76,0.00,CLR,SKC,0.08,WeatherDisplay:10.37,2013-06-01 00:01:00,
2013-05-31 20:06:00,75.9,67.8,29.69,WSW,248,3.8,5.8,76,0.00,CLR,SKC,0.08,WeatherDisplay:10.37,2013-06-01 00:06:00,
2013-05-31 20:11:00,75.9,68.2,29.68,SE,135,1.9,9.2,77,0.00,CLR,SKC,0.08,WeatherDisplay:10.37,2013-06-01 00:11:00,
2013-05-31 20:16:00,75.7,68.4,29.68,SE,135,2.2,8.1,78,0.00,CLR,SKC,0.08,WeatherDisplay:10.37,2013-06-01 00:16:00,
2013-05-31 20:21:00,75.6,68.2,29.68,ESE,112,3.9,4.6,78,0.00,CLR,SKC,0.08,WeatherDisplay:10.37,2013-06-01 00:21:00,
2013-05-31 20:26:00,75.4,68.4,29.68,SW,225,3.0,15.0,79,0.00,CLR,SKC,0.08,WeatherDisplay:10.37,2013-06-01 00:26:00,
2013-05-31 20:31:00,75.0,68.1,29.68,SW,225,3.1,9.2,79,0.00,CLR,SKC,0.08,WeatherDisplay:10.37,2013-06-01 00:31:00,
2013-05-31 20:36:00,75.0,68.1,29.69,WSW,248,6.6,17.3,79,0.00,CLR,SKC,0.08,WeatherDisplay:10.37,2013-06-01 00:36:00,
2013-05-31 20:41:00,74.8,67.9,29.71,West,270,2.0,2.3,79,0.00,CLR,SKC,0.08,WeatherDisplay:10.37,2013-06-01 00:41:00,
2013-05-31 20:46:00,74.7,68.1,29.72,NW,315,1.8,3.5,80,0.00,CLR,SKC,0.08,WeatherDisplay:10.37,2013-06-01 00:46:00,
2013-05-31 20:51:00,74.3,67.7,29.72,NW,315,0.0,1.3,80,0.00,CLR,SKC,0.08,WeatherDisplay:10.37,2013-06-01 00:51:00,
2013-05-31 20:56:00,73.6,66.3,29.71,SE,135,0.0,2.3,78,0.00,CLR,SKC,0.08,WeatherDisplay:10.37,2013-06-01 00:56:00,
2013-05-31 21:01:00,73.0,66.1,29.70,North,0,4.1,5.8,79,0.00,CLR,SKC,0.08,WeatherDisplay:10.37,2013-06-01 01:01:00,
2013-05-31 21:06:00,72.1,65.3,29.69,SSE,158,0.5,2.3,79,0.02,RA,SKC,0.10,WeatherDisplay:10.37,2013-06-01 01:06:00,
2013-05-31 21:12:00,71.4,64.9,29.71,South,180,0.0,0.0,80,0.02,RA,SKC,0.10,WeatherDisplay:10.37,2013-06-01 01:12:00,
2013-05-31 21:17:00,71.2,65.1,29.72,East,90,1.8,2.3,81,0.08,RA,SKC,0.16,WeatherDisplay:10.37,2013-06-01 01:17:00,
2013-05-31 21:22:00,70.9,64.8,29.72,NNW,338,0.0,0.0,81,0.14,RA,SKC,0.22,WeatherDisplay:10.37,2013-06-01 01:22:00,
2013-05-31 21:27:00,70.5,64.4,29.71,NE,45,1.1,3.1,81,0.16,RA,SKC,0.24,WeatherDisplay:10.37,2013-06-01 01:27:00,
2013-05-31 21:32:00,70.2,64.1,29.69,ENE,68,3.8,6.9,81,0.18,RA,SKC,0.26,WeatherDisplay:10.37,2013-06-01 01:32:00,
2013-05-31 21:37:00,69.6,63.9,29.66,North,0,9.2,9.2,82,0.28,RA,SKC,0.36,WeatherDisplay:10.37,2013-06-01 01:37:00,
2013-05-31 21:42:00,69.1,63.0,29.72,West,270,4.6,5.8,81,0.35,RA,SKC,0.43,WeatherDisplay:10.37,2013-06-01 01:42:00,
2013-05-31 21:47:00,69.1,62.6,29.74,WSW,248,6.9,8.1,80,0.61,RA,SKC,0.71,WeatherDisplay:10.37,2013-06-01 01:47:00,
2013-05-31 21:52:00,68.7,62.3,29.72,North,0,0.0,0.0,80,1.13,RA,SKC,1.23,WeatherDisplay:10.37,2013-06-01 01:52:00,
2013-05-31 21:57:00,68.5,62.1,29.72,West,270,0.3,2.7,80,1.26,RA,SKC,1.34,WeatherDisplay:10.37,2013-06-01 01:57:00,
2013-05-31 22:02:00,68.4,61.9,29.72,West,270,0.0,0.0,80,1.28,RA,SKC,1.36,WeatherDisplay:10.37,2013-06-01 02:02:00,
2013-05-31 22:07:00,68.2,61.8,29.73,SSW,202,2.5,4.0,80,1.26,RA,SKC,1.36,WeatherDisplay:10.37,2013-06-01 02:07:00,
2013-05-31 22:12:00,68.2,61.4,29.74,NW,315,0.0,0.0,79,1.26,CLR,SKC,1.36,WeatherDisplay:10.37,2013-06-01 02:12:00,
2013-05-31 22:17:00,68.2,61.4,29.73,NE,45,0.6,2.5,79,1.37,RA,SKC,1.53,WeatherDisplay:10.37,2013-06-01 02:17:00,
2013-05-31 22:22:00,68.2,61.1,29.73,NE,45,0.0,1.1,78,1.31,RA,SKC,1.53,WeatherDisplay:10.37,2013-06-01 02:22:00,
2013-05-31 22:27:00,68.2,61.1,29.73,NE,45,0.0,0.0,78,1.29,CLR,SKC,1.53,WeatherDisplay:10.37,2013-06-01 02:27:00,
2013-05-31 22:32:00,68.2,61.1,29.73,NE,45,0.0,0.0,78,1.27,CLR,SKC,1.53,WeatherDisplay:10.37,2013-06-01 02:32:00,
2013-05-31 22:37:00,68.2,60.7,29.74,SSW,202,1.1,1.1,77,1.17,CLR,SKC,1.53,WeatherDisplay:10.37,2013-06-01 02:37:00,
2013-05-31 22:42:00,68.4,60.9,29.74,East,90,1.4,2.3,77,1.10,CLR,SKC,1.53,WeatherDisplay:10.37,2013-06-01 02:42:00,
2013-05-31 22:47:00,68.4,60.5,29.74,WNW,292,4.0,9.2,76,0.84,CLR,SKC,1.53,WeatherDisplay:10.37,2013-06-01 02:47:00,
2013-05-31 22:52:00,68.7,60.1,29.74,SSE,158,0.0,1.1,74,0.32,CLR,SKC,1.53,WeatherDisplay:10.37,2013-06-01 02:52:00,
2013-05-31 22:57:00,68.7,60.1,29.74,ESE,112,0.3,2.3,74,0.19,CLR,SKC,1.53,WeatherDisplay:10.37,2013-06-01 02:57:00,
2013-05-31 23:02:00,68.7,60.1,29.74,ESE,112,0.0,0.0,74,0.17,CLR,SKC,1.53,WeatherDisplay:10.37,2013-06-01 03:02:00,
2013-05-31 23:07:00,68.7,60.1,29.74,ESE,112,0.0,0.0,74,0.17,CLR,SKC,1.53,WeatherDisplay:10.37,2013-06-01 03:07:00,
2013-05-31 23:12:00,68.7,60.1,29.74,ESE,112,0.0,0.0,74,0.17,CLR,SKC,1.53,WeatherDisplay:10.37,2013-06-01 03:12:00,
2013-05-31 23:17:00,68.7,60.1,29.74,ESE,112,0.0,0.0,74,0.00,CLR,SKC,1.53,WeatherDisplay:10.37,2013-06-01 03:17:00,
2013-05-31 23:22:00,68.9,59.9,29.74,ESE,112,0.0,0.0,73,0.00,CLR,SKC,1.53,WeatherDisplay:10.37,2013-06-01 03:22:00,
2013-05-31 23:27:00,68.9,59.9,29.74,SE,135,0.0,0.0,73,0.00,CLR,SKC,1.53,WeatherDisplay:10.37,2013-06-01 03:27:00,
2013-05-31 23:32:00,69.1,60.1,29.74,South,180,0.0,0.0,73,0.00,CLR,SKC,1.53,WeatherDisplay:10.37,2013-06-01 03:32:00,
2013-05-31 23:37:00,69.1,59.7,29.74,South,180,0.0,0.0,72,0.00,CLR,SKC,1.53,WeatherDisplay:10.37,2013-06-01 03:37:00,
2013-05-31 23:42:00,69.4,60.0,29.74,SSE,158,0.0,1.6,72,0.00,CLR,SKC,1.53,WeatherDisplay:10.37,2013-06-01 03:42:00,
2013-05-31 23:47:00,69.6,59.8,29.74,South,180,0.3,1.1,71,0.00,CLR,SKC,1.53,WeatherDisplay:10.37,2013-06-01 03:47:00,
2013-05-31 23:52:00,69.6,59.8,29.73,South,180,0.0,4.6,71,0.00,CLR,SKC,1.53,WeatherDisplay:10.37,2013-06-01 03:52:00,
2013-05-31 23:57:00,69.8,60.0,29.73,South,180,0.0,0.0,71,0.00,CLR,SKC,1.53,WeatherDisplay:10.37,2013-06-01 03:57:00,